Location: Newark
(25.4800°N, 85.7200°E)
Time: 20:38:53
(UTC+00:00)

Vanguard 1 Rocket - Pass Details

Date: 27 August 2019
Orbit: 652 x 4225 km, 34.3° (Epoch: 15 September)

Event Time Altitude Azimuth Distance (km) Brightness Sun altitude
Rises 22:27:10 0° 297° (WNW) 3,006 - -20.0°
Reaches altitude 10° 22:29:16 10° 304° (NW) 2,189 - -19.5°
Exits shadow 22:30:06 15° 308° (NW) 1,890 8.7 -19.4°
Maximum altitude 22:33:57 48° 19° (NNE) 1,160 8.2 -18.6°
Drops below altitude 10° 22:41:21 10° 93° (E) 3,431 11.4 -17.0°
Sets 22:45:28 0° 98° (E) 4,951 12.3 -16.1°
